Date String (YYYY-MM-DD hh:mm:ss) UTC,Instrument flags,Ambient pressure (hPa),Sample flow (lpm),Bypass flow (lpm),Sample temperature (°C),Ambient temperature (°C),ASC tube jacket temperature (°C),LED temperature (°C),Box temperature (°C),Sample RH (%),Span deviation,Mass concentration (μg/m³),Mass concentration (μg/m³),Mass concentration (μg/m³)
DateTimeUTC,F1_M11,P_M11,Q1_M11,Q2_M11,T1_M11,T2_M11,T3_M11,T4_M11,T5_M11,U1_M11,ZSPAN_M11,X0_M11,X2_M11,X1_M11
2022-07-05 09:00:00,,0826.2,5.00,0.00,29.6,28.5,00.0,38.4,31.5,22.5,0000.0,0005.58,0002.28,0001.73
2022-07-05 09:01:00,,0826.2,5.00,0.00,29.7,28.5,00.0,38.4,31.5,22.6,0000.0,0005.68,0002.31,0001.73
2022-07-05 09:02:00,,0826.2,4.99,0.00,29.7,28.6,00.0,38.4,31.6,22.5,0000.0,0005.23,0002.30,0001.74
2022-07-05 09:03:00,,0826.2,5.00,0.00,29.7,28.6,00.0,38.5,31.6,22.5,0000.0,0004.46,0002.34,0001.76
2022-07-05 09:04:00,,0826.3,5.00,0.00,29.7,28.7,00.0,38.5,31.6,22.4,0000.0,0004.31,0002.34,0001.78
2022-07-05 09:05:00,,0826.2,5.01,0.00,29.7,28.7,00.0,38.5,31.7,22.5,0000.0,0004.09,0002.35,0001.79
2022-07-05 09:06:00,,0826.2,5.00,0.00,29.8,28.7,00.0,38.5,31.7,22.6,0000.0,0004.13,0002.36,0001.80
2022-07-05 09:07:00,,0826.2,5.00,0.00,29.8,28.8,00.0,38.5,31.7,22.6,0000.0,0004.15,0002.37,0001.81
2022-07-05 09:08:00,,0826.2,5.01,0.00,29.8,28.8,00.0,38.5,31.7,22.5,0000.0,0004.09,0002.40,0001.82
2022-07-05 09:09:00,,0826.2,5.00,0.00,29.8,28.8,00.0,38.5,31.7,22.5,0000.0,0003.81,0002.40,0001.84
2022-07-05 09:10:00,,0826.3,4.99,0.00,29.9,28.8,00.0,38.6,31.7,22.5,0000.0,0003.63,0002.41,0001.87
2022-07-05 09:11:00,,0826.3,5.00,0.00,29.9,28.9,00.0,38.6,31.8,22.3,0000.0,0003.66,0002.44,0001.90
2022-07-05 09:12:00,,0826.4,4.99,0.00,29.9,28.8,00.0,38.6,31.8,22.4,0000.0,0003.72,0002.48,0001.95
2022-07-05 09:13:00,,0826.2,4.99,0.00,29.9,28.2,00.0,38.6,31.7,22.4,0000.0,0003.76,0002.52,0001.98
2022-07-05 09:14:00,,0826.2,5.01,0.00,29.8,27.5,00.0,38.5,31.6,22.4,0000.0,0003.89,0002.59,0002.01
2022-07-05 09:15:00,,0826.2,4.99,0.00,29.8,27.4,00.0,38.5,31.5,22.4,0000.0,0004.05,0002.62,0002.03
2022-07-05 09:16:00,,0826.2,5.00,0.00,29.7,27.4,00.0,38.5,31.4,22.6,0000.0,0004.08,0002.64,0002.06
2022-07-05 09:17:00,,0826.3,5.00,0.00,29.6,27.5,00.0,38.5,31.3,22.8,0000.0,0004.23,0002.69,0002.09
2022-07-05 09:18:00,,0826.2,5.01,0.00,29.6,27.6,00.0,38.4,31.3,22.8,0000.0,0004.21,0002.70,0002.11
2022-07-05 09:19:00,,0826.2,5.01,0.00,29.6,27.7,00.0,38.4,31.4,22.8,0000.0,0004.21,0002.72,0002.13
2022-07-05 09:20:00,,0826.2,5.00,0.00,29.6,27.9,00.0,38.4,31.4,22.8,0000.0,0004.32,0002.74,0002.13
2022-07-05 09:21:00,,0826.2,5.00,0.00,29.6,28.0,00.0,38.4,31.4,22.8,0000.0,0004.33,0002.73,0002.13
2022-07-05 09:22:00,,0826.4,4.99,0.00,29.6,28.1,00.0,38.4,31.4,22.9,0000.0,0004.41,0002.73,0002.13
2022-07-05 09:23:00,,0826.2,5.00,0.00,29.6,28.2,00.0,38.4,31.4,23.0,0000.0,0004.44,0002.72,0002.11
2022-07-05 09:24:00,,0826.2,5.00,0.00,29.6,28.3,00.0,38.4,31.4,23.0,0000.0,0004.55,0002.73,0002.10
2022-07-05 09:25:00,,0826.2,5.00,0.00,29.6,28.3,00.0,38.4,31.5,23.0,0000.0,0004.43,0002.67,0002.08
2022-07-05 09:26:00,,0826.4,5.01,0.00,29.6,28.4,00.0,38.4,31.5,22.9,0000.0,0004.41,0002.67,0002.07
2022-07-05 09:27:00,,0826.3,4.99,0.00,29.7,28.4,00.0,38.4,31.5,22.9,0000.0,0004.37,0002.66,0002.05
2022-07-05 09:28:00,,0826.3,5.00,0.00,29.7,28.5,00.0,38.4,31.6,22.8,0000.0,0004.31,0002.66,0002.04
2022-07-05 09:29:00,,0826.2,5.01,0.00,29.7,28.5,00.0,38.4,31.6,22.7,0000.0,0004.28,0002.65,0002.04
2022-07-05 09:30:00,,0826.3,5.00,0.00,29.7,28.6,00.0,38.5,31.6,22.7,0000.0,0004.40,0002.63,0002.03
2022-07-05 09:31:00,,0826.2,5.00,0.00,29.7,28.6,00.0,38.5,31.6,22.7,0000.0,0004.75,0002.58,0002.02
2022-07-05 09:32:00,,0826.2,4.99,0.00,29.8,28.7,00.0,38.5,31.7,22.6,0000.0,0005.36,0002.59,0002.03
2022-07-05 09:33:00,,0826.3,5.00,0.00,29.8,28.7,00.0,38.5,31.7,22.7,0000.0,0005.98,0002.66,0002.04
2022-07-05 09:34:00,,0826.2,4.99,0.00,29.8,28.7,00.0,38.5,31.7,22.7,0000.0,0005.99,0002.67,0002.03
2022-07-05 09:35:00,,0826.2,5.00,0.00,29.8,28.7,00.0,38.5,31.7,22.6,0000.0,0005.93,0002.67,0002.05
2022-07-05 09:36:00,,0826.3,5.01,0.00,29.8,28.8,00.0,38.5,31.7,22.6,0000.0,0005.96,0002.68,0002.07
2022-07-05 09:37:00,,0826.2,5.01,0.00,29.8,28.8,00.0,38.6,31.8,22.6,0000.0,0005.80,0002.63,0002.09
2022-07-05 09:38:00,,0826.3,5.01,0.00,29.9,28.8,00.0,38.6,31.8,22.4,0000.0,0005.64,0002.59,0002.10
2022-07-05 09:39:00,,0826.3,5.00,0.00,29.9,28.8,00.0,38.6,31.8,22.4,0000.0,0005.51,0002.55,0002.10
2022-07-05 09:40:00,,0826.3,5.00,0.00,29.9,28.9,00.0,38.6,31.8,22.4,0000.0,0005.48,0002.54,0002.13
2022-07-05 09:41:00,,0826.3,5.00,0.00,29.9,28.9,00.0,38.6,31.8,22.4,0000.0,0005.50,0002.57,0002.16
2022-07-05 09:42:00,,0826.3,5.00,0.00,29.9,28.8,00.0,38.6,31.8,22.4,0000.0,0005.08,0002.61,0002.18
2022-07-05 09:43:00,,0826.2,5.00,0.00,29.9,28.0,00.0,38.6,31.8,22.4,0000.0,0004.97,0002.67,0002.20
2022-07-05 09:44:00,,0826.2,5.00,0.00,29.9,27.5,00.0,38.5,31.6,22.5,0000.0,0004.06,0002.63,0002.20
2022-07-05 09:45:00,,0826.2,4.99,0.00,29.8,27.4,00.0,38.5,31.5,22.6,0000.0,0004.09,0002.62,0002.21
2022-07-05 09:46:00,,0826.3,5.00,0.00,29.7,27.4,00.0,38.5,31.4,22.7,0000.0,0004.14,0002.63,0002.22
2022-07-05 09:47:00,,0826.3,5.01,0.00,29.7,27.5,00.0,38.5,31.3,22.7,0000.0,0004.09,0002.62,0002.21
2022-07-05 09:48:00,,0826.2,4.99,0.00,29.6,27.6,00.0,38.5,31.3,22.7,0000.0,0004.30,0002.69,0002.22
2022-07-05 09:49:00,,0826.3,5.01,0.00,29.6,27.7,00.0,38.5,31.4,22.6,0000.0,0005.07,0002.75,0002.24
2022-07-05 09:50:00,,0826.2,5.01,0.00,29.6,27.9,00.0,38.4,31.4,22.6,0000.0,0005.21,0002.81,0002.27
2022-07-05 09:51:00,,0826.2,5.00,0.00,29.6,28.0,00.0,38.4,31.4,22.6,0000.0,0005.67,0002.96,0002.31
2022-07-05 09:52:00,,0826.2,4.99,0.00,29.6,28.1,00.0,38.4,31.4,22.7,0000.0,0005.69,0002.97,0002.30
2022-07-05 09:53:00,,0826.2,5.00,0.00,29.6,28.2,00.0,38.4,31.4,22.7,0000.0,0005.58,0002.95,0002.30
2022-07-05 09:54:00,,0826.2,5.00,0.00,29.6,28.2,00.0,38.4,31.4,22.7,0000.0,0005.54,0002.95,0002.31
2022-07-05 09:55:00,,0826.2,5.00,0.00,29.6,28.3,00.0,38.4,31.4,22.7,0000.0,0005.48,0002.96,0002.32
2022-07-05 09:56:00,,0826.2,5.00,0.00,29.6,28.4,00.0,38.4,31.5,22.6,0000.0,0005.26,0002.93,0002.35
2022-07-05 09:57:00,,0826.2,4.99,0.00,29.6,28.4,00.0,38.4,31.5,22.6,0000.0,0005.26,0002.93,0002.36
2022-07-05 09:58:00,,0826.2,5.00,0.00,29.7,28.5,00.0,38.4,31.5,22.6,0000.0,0006.54,0002.95,0002.38
2022-07-05 09:59:00,,0826.2,5.00,0.00,29.7,28.5,00.0,38.4,31.6,22.5,0000.0,0006.44,0002.93,0002.38
